Atlanta Fulton, GA

8:44 AM EST on November 23, 2017 (GMT -0500)
Fulton County-Brown

Weather History for KFTY - April, 2013

Change the Weather History Date:

Sunday, April 7, 2013

  Actual Average Record
Temperature  
Mean Temperature 59 °F 59 °F  
Max Temperature 76 °F 71 °F 84 °F (1999)
Min Temperature 42 °F 47 °F 28 °F (2007)
Degree Days  
Heating Degree Days 6 7  
Month to date heating degree days 51  
Since 1 July heating degree days 2750  
Cooling Degree Days 0 1  
Month to date cooling degree days 5  
Year to date cooling degree days 11  
Growing Degree Days 9 (Base 50)    
Moisture  
Dew Point 45 °F    
Average Humidity 62    
Maximum Humidity 93    
Minimum Humidity 32    
Precipitation  
Precipitation 0.00 in 0.12 in 3.06 in (2014)
Month to date precipitation 0.88  
Year to date precipitation 14.86  
Snow  
Snow 0.00 in - - ()
Month to date snowfall  
Since 1 July snowfall  
Snow Depth -    
Sea Level Pressure  
Sea Level Pressure 30.12 in    
Wind  
Wind Speed 3 mph (South)    
Max Wind Speed 12 mph    
Max Gust Speed 17 mph    
Visibility 10 miles    
Events      
T = Trace of Precipitation, MM = Missing Value Source: NWS Daily Summary

Daily Weather History Graph

Daily Weather History Graph

Search for Another Location

Airport or City:

Trip Planner

Search our weather history database for the weather conditions in past years. The results will help you decide how hot, cold, wet, or windy it might be!

Date:

Astronomy

Apr. 07, 2013 Rise Set
Actual Time 7:17 AM EDT 8:03 PM EDT
Civil Twilight 6:52 AM EDT 8:28 PM EDT
Nautical Twilight 6:22 AM EDT 8:58 PM EDT
Astronomical Twilight 5:51 AM EDT 9:29 PM EDT
Moon 5:27 AM EDT (4/7) 5:40 PM EDT (4/7)
Length of Visible Light 13h 36m
Length of Day
12h 46m
Waning Crescent, 8% of the Moon is Illuminated
Apr 7
Waning Crescent
Apr 10
New
Apr 18
First Quarter
Apr 25
Full
May 2
Last Quarter

Hourly Weather History & Observations

Time (EDT) Temp. Dew Point Humidity Pressure Visibility Wind Dir Wind Speed Gust Speed Precip Events Conditions
12:53 AM 53.1 °F 43.0 °F 69% 30.14 in 10.0 mi Calm Calm - N/A   Clear
1:53 AM 48.0 °F 44.1 °F 86% 30.13 in 10.0 mi Calm Calm - N/A   Clear
2:53 AM 46.9 °F 43.0 °F 86% 30.13 in 10.0 mi Calm Calm - N/A   Clear
3:53 AM 48.0 °F 42.1 °F 80% 30.13 in 10.0 mi Calm Calm - N/A   Clear
4:53 AM 46.9 °F 43.0 °F 86% 30.13 in 10.0 mi Calm Calm - N/A   Clear
5:53 AM 45.0 °F 41.0 °F 86% 30.15 in 10.0 mi Calm Calm - N/A   Clear
6:53 AM 43.0 °F 41.0 °F 93% 30.17 in 10.0 mi Calm Calm - N/A   Clear
7:53 AM 44.1 °F 42.1 °F 93% 30.19 in 10.0 mi Calm Calm - N/A   Clear
8:53 AM 51.1 °F 45.0 °F 80% 30.20 in 10.0 mi Calm Calm - N/A   Clear
9:53 AM 59.0 °F 48.0 °F 67% 30.20 in 10.0 mi SSW 5.8 mph - N/A   Clear
10:53 AM 62.1 °F 48.9 °F 62% 30.20 in 10.0 mi SSW 8.1 mph - N/A   Clear
11:53 AM 66.9 °F 48.0 °F 51% 30.19 in 10.0 mi South 10.4 mph - N/A   Clear
12:53 PM 69.1 °F 46.9 °F 45% 30.17 in 10.0 mi SW 8.1 mph 16.1 mph N/A   Scattered Clouds
1:53 PM 71.1 °F 46.0 °F 41% 30.13 in 10.0 mi South 10.4 mph - N/A   Scattered Clouds
2:53 PM 72.0 °F 45.0 °F 38% 30.11 in 10.0 mi SE 10.4 mph - N/A   Scattered Clouds
3:53 PM 73.9 °F 45.0 °F 35% 30.08 in 10.0 mi SSE 8.1 mph - N/A   Partly Cloudy
4:53 PM 75.0 °F 45.0 °F 34% 30.06 in 10.0 mi SW 10.4 mph - N/A   Partly Cloudy
5:53 PM 75.9 °F 44.1 °F 32% 30.06 in 10.0 mi South 11.5 mph 17.3 mph N/A   Partly Cloudy
6:53 PM 73.9 °F 45.0 °F 35% 30.06 in 10.0 mi SSW 9.2 mph - N/A   Clear
7:53 PM 73.0 °F 46.0 °F 38% 30.06 in 10.0 mi South 6.9 mph - N/A   Mostly Cloudy
8:53 PM 69.1 °F 46.9 °F 45% 30.07 in 10.0 mi SSE 3.5 mph - N/A   Mostly Cloudy
9:53 PM 63.0 °F 51.1 °F 65% 30.08 in 10.0 mi Calm Calm - N/A   Scattered Clouds
10:53 PM 57.9 °F 50.0 °F 75% 30.08 in 10.0 mi Calm Calm - N/A   Clear
11:53 PM 57.0 °F 48.9 °F 74% 30.08 in 10.0 mi Calm Calm - N/A   Clear